Preston, MN

8:55 PM CDT on April 26, 2017 (GMT -0500)
Preston

Weather History for KFKA - October, 2013

Change the Weather History Date:

Thursday, October 3, 2013

  Actual Average (KRST) Record (KRST)
Temperature  
Mean Temperature 62 °F -  
Max Temperature 68 °F 63 °F 93 °F (1997)
Min Temperature 57 °F 42 °F 24 °F (1888)
Degree Days  
Heating Degree Days 3    
Growing Degree Days 12 (Base 50)    
Moisture  
Dew Point 60 °F    
Average Humidity 93    
Maximum Humidity 100    
Minimum Humidity 68    
Precipitation  
Precipitation 0.48 in - - ()
Sea Level Pressure  
Sea Level Pressure 29.87 in    
Wind  
Wind Speed 6 mph (East)    
Max Wind Speed 17 mph    
Max Gust Speed 28 mph    
Visibility 8 miles    
Events Fog , Rain , Thunderstorm    
Averages and records for this station are not official NWS values.
T = Trace of Precipitation, MM = Missing Value Source: NWS Daily Summary

Daily Weather History Graph

Daily Weather History Graph

Search for Another Location

Airport or City:

Trip Planner

Search our weather history database for the weather conditions in past years. The results will help you decide how hot, cold, wet, or windy it might be!

Date:

Astronomy

Oct. 03, 2013 Rise Set
Actual Time 7:08 AM CDT 6:45 PM CDT
Civil Twilight 6:40 AM CDT 7:14 PM CDT
Nautical Twilight 6:07 AM CDT 7:47 PM CDT
Astronomical Twilight 5:33 AM CDT 8:20 PM CDT
Moon 5:41 AM CDT (10/3) 5:55 PM CDT (10/3)
Length of Visible Light 12h 33m
Length of Day
11h 36m
Waning Crescent, 2% of the Moon is Illuminated
Oct 3
Waning Crescent
Oct 4
New
Oct 11
First Quarter
Oct 18
Full
Oct 26
Last Quarter

Hourly Weather History & Observations

Time (CDT) Temp. Dew Point Humidity Pressure Visibility Wind Dir Wind Speed Gust Speed Precip Events Conditions
12:17 AM 64.6 °F 53.6 °F 68% 29.89 in 10.0 mi South 10.4 mph - N/A   Scattered Clouds
12:36 AM 63.9 °F 54.3 °F 71% 29.89 in 10.0 mi South 6.9 mph - N/A   Scattered Clouds
12:41 AM 64.0 °F 54.7 °F 72% 29.89 in 10.0 mi SSW 6.9 mph - N/A   Scattered Clouds
1:14 AM 66.2 °F 55.4 °F 68% 29.94 in 10.0 mi NW 13.8 mph 27.6 mph N/A   Mostly Cloudy
1:34 AM 62.6 °F 57.2 °F 82% 29.95 in 7.0 mi NNW 10.4 mph 21.9 mph N/A   Overcast
1:55 AM 60.8 °F 57.2 °F 88% 29.94 in 4.0 mi NNW 4.6 mph - N/A   Overcast
2:18 AM 59.0 °F 57.2 °F 94% 29.93 in 10.0 mi East 3.5 mph - N/A   Overcast
2:33 AM 59.0 °F 57.2 °F 94% 29.92 in 10.0 mi Calm Calm - N/A   Overcast
2:58 AM 59.0 °F 57.2 °F 94% 29.91 in 10.0 mi East 4.6 mph - N/A   Overcast
3:15 AM 59.0 °F 57.2 °F 94% 29.90 in 10.0 mi East 3.5 mph - N/A   Mostly Cloudy
3:32 AM 57.2 °F 57.2 °F 100% 29.89 in 10.0 mi East 3.5 mph - N/A   Scattered Clouds
3:52 AM 57.2 °F 57.2 °F 100% 29.89 in 10.0 mi SE 4.6 mph - N/A   Mostly Cloudy
4:14 AM 57.2 °F 55.4 °F 94% 29.89 in 10.0 mi Calm Calm - N/A   Scattered Clouds
4:39 AM 57.2 °F 57.2 °F 100% 29.89 in 10.0 mi East 4.6 mph - N/A   Scattered Clouds
5:05 AM 57.2 °F 57.2 °F 100% 29.90 in 7.0 mi East 4.6 mph - N/A   Overcast
5:16 AM 57.2 °F 57.2 °F 100% 29.90 in 7.0 mi East 5.8 mph - N/A   Mostly Cloudy
5:36 AM 57.2 °F 57.2 °F 100% 29.90 in 7.0 mi SE 4.6 mph - N/A   Overcast
5:55 AM 59.0 °F 57.2 °F 94% 29.90 in 7.0 mi SSE 3.5 mph - N/A   Overcast
6:14 AM 59.0 °F 57.2 °F 94% 29.90 in 7.0 mi SSE 5.8 mph - N/A   Mostly Cloudy
6:35 AM 57.2 °F 57.2 °F 100% 29.89 in 7.0 mi East 3.5 mph - N/A   Mostly Cloudy
6:55 AM 57.2 °F 57.2 °F 100% 29.89 in 5.0 mi Calm Calm - N/A   Mostly Cloudy
7:17 AM 59.0 °F 57.2 °F 94% 29.89 in 7.0 mi SSE 5.8 mph - N/A   Scattered Clouds
7:36 AM 59.0 °F 57.2 °F 94% 29.89 in 5.0 mi Calm Calm - N/A   Scattered Clouds
7:58 AM 57.2 °F 57.2 °F 100% 29.89 in 4.0 mi Calm Calm - N/A   Scattered Clouds
8:18 AM 59.0 °F 57.2 °F 94% 29.88 in 4.0 mi NE 9.2 mph - N/A   Mostly Cloudy
8:33 AM 59.0 °F 59.0 °F 100% 29.89 in 5.0 mi ENE 5.8 mph - N/A   Overcast
8:58 AM 59.0 °F 59.0 °F 100% 29.88 in 7.0 mi SE 6.9 mph - N/A   Scattered Clouds
9:05 AM 60.8 °F 59.0 °F 94% 29.88 in 7.0 mi ESE 5.8 mph - N/A   Scattered Clouds
9:30 AM 60.8 °F 59.0 °F 94% 29.87 in 10.0 mi ESE 5.8 mph - N/A   Scattered Clouds
9:52 AM 62.6 °F 60.8 °F 94% 29.88 in 10.0 mi SSE 5.8 mph - N/A   Clear
10:13 AM 62.6 °F 60.8 °F 94% 29.87 in 10.0 mi SSE 4.6 mph - N/A   Scattered Clouds
10:30 AM 63.5 °F 60.8 °F 91% 29.86 in 10.0 mi SE 8.1 mph - N/A   Scattered Clouds
10:37 AM 63.9 °F 60.8 °F 90% 29.85 in 10.0 mi ESE 6.9 mph - N/A   Clear
10:55 AM 64.8 °F 61.2 °F 88% 29.85 in 10.0 mi SE 5.8 mph - N/A   Clear
11:17 AM 65.3 °F 61.7 °F 88% 29.85 in 10.0 mi ESE 5.8 mph - N/A   Clear
11:36 AM 64.9 °F 62.1 °F 90% 29.85 in 10.0 mi ESE 3.5 mph - N/A   Clear
11:56 AM 65.3 °F 62.6 °F 91% 29.85 in 10.0 mi SSE 5.8 mph - N/A Thunderstorm Mostly Cloudy
12:15 PM 65.5 °F 62.6 °F 90% 29.85 in 5.0 mi SE 4.6 mph - 0.01 in Rain , Thunderstorm Thunderstorms and Rain
12:36 PM 63.3 °F 61.2 °F 93% 29.87 in 1.8 mi WNW 12.7 mph 25.3 mph 0.15 in Rain , Thunderstorm Heavy Thunderstorms and Rain
12:41 PM 61.9 °F 60.1 °F 94% 29.85 in 1.0 mi NW 17.3 mph 25.3 mph 0.27 in Rain , Thunderstorm Heavy Thunderstorms and Rain
1:17 PM 61.7 °F 60.4 °F 96% 29.85 in 2.0 mi ESE 4.6 mph - 0.18 in Rain , Thunderstorm Thunderstorms and Rain
1:29 PM 61.9 °F 60.8 °F 96% 29.84 in 4.0 mi East 8.1 mph - 0.21 in Rain , Thunderstorm Thunderstorms and Rain
1:41 PM 62.6 °F 61.3 °F 96% 29.83 in 10.0 mi ENE 9.2 mph - 0.21 in Thunderstorm Thunderstorm
2:15 PM 62.6 °F 62.6 °F 100% 29.82 in 10.0 mi ENE 8.1 mph - N/A   Overcast
2:32 PM 64.4 °F 62.6 °F 94% 29.82 in 10.0 mi East 6.9 mph - N/A   Overcast
2:42 PM 64.9 °F 62.8 °F 93% 29.82 in 10.0 mi ESE 9.2 mph - N/A   Mostly Cloudy
2:57 PM 64.9 °F 62.6 °F 92% 29.81 in 10.0 mi ESE 6.9 mph - N/A   Mostly Cloudy
3:16 PM 65.5 °F 62.8 °F 91% 29.82 in 10.0 mi ESE 6.9 mph - N/A   Overcast
3:37 PM 65.8 °F 62.4 °F 89% 29.82 in 10.0 mi East 5.8 mph - N/A   Overcast
3:57 PM 67.1 °F 63.0 °F 87% 29.82 in 10.0 mi ESE 6.9 mph - N/A   Mostly Cloudy
4:17 PM 67.3 °F 63.1 °F 87% 29.82 in 10.0 mi Calm Calm - N/A   Overcast
4:36 PM 66.6 °F 63.1 °F 89% 29.82 in 10.0 mi ENE 4.6 mph - N/A   Overcast
4:57 PM 67.3 °F 63.5 °F 88% 29.82 in 10.0 mi East 5.8 mph - N/A   Overcast
5:16 PM 67.5 °F 63.7 °F 88% 29.82 in 10.0 mi East 5.8 mph - N/A   Overcast
5:37 PM 66.2 °F 63.5 °F 91% 29.82 in 10.0 mi Calm Calm - N/A   Overcast
5:56 PM 65.8 °F 63.5 °F 92% 29.81 in 10.0 mi NE 3.5 mph - N/A   Mostly Cloudy
6:16 PM 65.7 °F 63.9 °F 94% 29.81 in 10.0 mi NE 4.6 mph - N/A   Mostly Cloudy
6:36 PM 65.5 °F 63.7 °F 94% 29.82 in 10.0 mi NE 6.9 mph - N/A   Overcast
6:56 PM 65.5 °F 63.5 °F 93% 29.84 in 10.0 mi NE 5.8 mph - N/A   Overcast
7:16 PM 65.3 °F 63.5 °F 94% 29.84 in 10.0 mi NE 6.9 mph - N/A   Overcast
7:36 PM 64.8 °F 63.5 °F 96% 29.84 in 10.0 mi ENE 4.6 mph - N/A   Overcast
7:56 PM 64.4 °F 62.8 °F 94% 29.85 in 10.0 mi NNE 4.6 mph - N/A   Overcast
8:16 PM 64.4 °F 63.3 °F 96% 29.86 in 10.0 mi North 4.6 mph - N/A   Overcast
8:37 PM 64.0 °F 63.0 °F 96% 29.85 in 10.0 mi NNE 4.6 mph - N/A   Overcast
8:56 PM 63.7 °F 62.6 °F 96% 29.86 in 10.0 mi NNE 4.6 mph - N/A   Overcast
9:16 PM 63.5 °F 62.2 °F 96% 29.87 in 10.0 mi North 5.8 mph - N/A   Overcast
9:36 PM 62.8 °F 61.9 °F 97% 29.87 in 5.0 mi NNE 6.9 mph - N/A   Overcast
9:56 PM 62.6 °F 61.7 °F 97% 29.87 in 1.5 mi NNE 4.6 mph - N/A   Overcast
10:16 PM 62.2 °F 61.7 °F 98% 29.86 in 0.8 mi NE 5.8 mph - N/A   Overcast
10:36 PM 62.1 °F 61.7 °F 99% 29.86 in 0.5 mi NNE 4.6 mph - N/A Fog Fog
11:36 PM 61.9 °F 61.3 °F 98% 29.88 in 0.2 mi North 5.8 mph - N/A Fog Fog
11:56 PM 61.7 °F 61.2 °F 98% 29.89 in 0.5 mi NE 3.5 mph - N/A Fog Fog